Change the Weather History Date:

Monday, April 15, 2013

  Actual Average Record
Temperature  
Mean Temperature 57 °F 50 °F  
Max Temperature 62 °F 63 °F 81 °F (1994)
Min Temperature 51 °F 37 °F 17 °F (1971)
Degree Days  
Heating Degree Days 8 15  
Month to date heating degree days 218 265  
Since 1 July heating degree days 5392 5366  
Cooling Degree Days 0 0  
Month to date cooling degree days 0 0  
Year to date cooling degree days 0 0  
Growing Degree Days 6 (Base 50)    
Moisture  
Dew Point 43 °F    
Average Humidity 54    
Maximum Humidity 72    
Minimum Humidity 36    
Precipitation  
Precipitation 0.06 in 0.12 in 1.33 in (2007)
Month to date precipitation 1.18 1.87  
Year to date precipitation 11.03 12.16  
Snow  
Snow 0.00 in - - ()
Month to date snowfall 0.0  
Since 1 September snowfall 77.5  
Snow Depth 0.00 in    
Sea Level Pressure  
Sea Level Pressure 30.12 in    
Wind  
Wind Speed 10 mph (SSE)    
Max Wind Speed 20 mph    
Max Gust Speed 26 mph    
Visibility 10 miles    
Events Rain    
T = Trace of Precipitation, MM = Missing Value Source: NWS Daily Summary

Daily Weather History Graph

Daily Weather History Graph

Search for Another Location

Airport or City:

Trip Planner

Search our weather history database for the weather conditions in past years. The results will help you decide how hot, cold, wet, or windy it might be!

Date:

Astronomy

Apr. 15, 2013 Rise Set
Actual Time 6:42 AM EDT 7:56 PM EDT
Civil Twilight 6:15 AM EDT 8:24 PM EDT
Nautical Twilight 5:42 AM EDT 8:57 PM EDT
Astronomical Twilight 5:07 AM EDT 9:31 PM EDT
Moon 10:08 AM EDT (4/15) 12:05 AM EDT (4/15)
Length of Visible Light 14h 09m
Length of Day
13h 14m
Waxing Crescent, 24% of the Moon is Illuminated
Apr 15
Waxing Crescent
Apr 18
First Quarter
Apr 25
Full
May 2
Last Quarter
May 9
New

Hourly Weather History & Observations

Time (EDT) Temp. Dew Point Humidity Pressure Visibility Wind Dir Wind Speed Gust Speed Precip Events Conditions
12:51 AM 62.1 °F 35.1 °F 37% 30.04 in 10.0 mi SE 4.6 mph - N/A   Overcast
1:51 AM 61.0 °F 35.1 °F 38% 30.04 in 10.0 mi SE 8.1 mph - N/A   Overcast
2:51 AM 61.0 °F 37.9 °F 42% 30.04 in 10.0 mi SSE 11.5 mph - N/A   Overcast
3:51 AM 57.9 °F 42.1 °F 56% 30.06 in 10.0 mi South 9.2 mph - 0.00 in   Overcast
4:51 AM 55.0 °F 44.1 °F 67% 30.08 in 10.0 mi South 6.9 mph - 0.00 in Rain Light Rain
5:51 AM 54.0 °F 45.0 °F 72% 30.10 in 9.0 mi SE 5.8 mph - 0.00 in Rain Light Rain
6:51 AM 52.0 °F 46.0 °F 80% 30.11 in 10.0 mi Variable 4.6 mph - 0.05 in   Overcast
7:51 AM 52.0 °F 45.0 °F 77% 30.12 in 10.0 mi SSE 9.2 mph - 0.01 in Rain Light Rain
8:51 AM 54.0 °F 44.1 °F 69% 30.12 in 10.0 mi SSE 11.5 mph 21.9 mph 0.00 in Rain Light Rain
9:51 AM 55.0 °F 43.0 °F 64% 30.12 in 10.0 mi SSE 12.7 mph 18.4 mph 0.00 in   Overcast
10:51 AM 55.9 °F 45.0 °F 67% 30.13 in 10.0 mi SSE 11.5 mph 21.9 mph 0.00 in Rain Light Rain
11:51 AM 57.0 °F 44.1 °F 62% 30.13 in 10.0 mi SSE 11.5 mph 26.5 mph 0.00 in   Overcast
12:51 PM 57.9 °F 45.0 °F 62% 30.14 in 10.0 mi SSE 10.4 mph 18.4 mph N/A   Overcast
1:51 PM 57.9 °F 45.0 °F 62% 30.15 in 10.0 mi SSE 9.2 mph 23.0 mph N/A   Overcast
2:51 PM 60.1 °F 44.1 °F 55% 30.13 in 10.0 mi South 15.0 mph 21.9 mph N/A   Overcast
3:51 PM 60.1 °F 44.1 °F 55% 30.14 in 10.0 mi SSE 11.5 mph 19.6 mph N/A   Overcast
4:51 PM 61.0 °F 43.0 °F 52% 30.14 in 10.0 mi South 16.1 mph 25.3 mph N/A   Overcast
5:51 PM 62.1 °F 44.1 °F 52% 30.14 in 10.0 mi South 10.4 mph 17.3 mph N/A   Overcast
6:51 PM 61.0 °F 44.1 °F 54% 30.15 in 10.0 mi South 8.1 mph 18.4 mph N/A   Partly Cloudy
7:51 PM 57.9 °F 45.0 °F 62% 30.17 in 10.0 mi South 6.9 mph - N/A   Clear
8:51 PM 57.0 °F 46.0 °F 67% 30.16 in 10.0 mi South 9.2 mph 18.4 mph N/A   Partly Cloudy
9:51 PM 57.9 °F 46.0 °F 65% 30.18 in 10.0 mi SSE 12.7 mph - N/A   Mostly Cloudy
10:51 PM 57.0 °F 46.0 °F 67% 30.18 in 10.0 mi South 4.6 mph 16.1 mph N/A   Partly Cloudy
11:51 PM 55.9 °F 46.9 °F 72% 30.17 in 10.0 mi SSE 8.1 mph - N/A   Clear